OPS 4682 DEB, 38361

Orbit data source: Space-Track

OPS 4682 DEB, 38361 is space debris in LEO originally from a launch on Sat, 03 Apr 1965 UTC launched from the Air Force Western Test Range (AFWTR). Debris objects in space refer to the collection of defunct objects orbiting the Earth. Examples of debris include non-operational satellites, rocket bodies, and fragments generated from explosions, collisions, or faulty payload assembly.

Loading next visibility...
Identifier
38361, 1965-027BN
Orbit
LEO
Country
Flag of USUS
Related business
Manufacturer
Unknown
Mission
Spacecraft
Bus & Motor
Unknown
Mass
Unknown
Launch date (UTC)
1965-04-03 (61 years ago)
Launch vehicle
Unknown
Launch site
Air Force Western Test Range (AFWTR)
Object type
Payload
Rocket body
Debris
Shape & HBR
Unknown shape, 0.1 m
Radar Cross Section
Medium (>0.1 m² and <1 m²)

Expand to show TLE details & history
Last TLE update: 1 day ago

TLE from 1 day ago
0 OPS 4682 DEB
1 38361U 65027BN  26262.27269236 -.00000533  00000-0 -17843-2 0  9994
2 38361  90.2488  13.7860 0031125  13.5503 346.6448 13.00402634598176
Epoch: 2026-09-19T06:32Z
TLE epoch observation values (Epoch: 2026-09-19T06:32:40.619Z)
Latitude
-0.00005°
Longitude
-82.56685°
Altitude
1,240.261 km
Speed
7.246 km/s
True Right ascension
00h 55m 08s
True Declination
0° 00' 00"
Sunlit
Object was in full shadow at epoch
Visualization orbit readout
Latitude
Unknown
Longitude
Unknown
Altitude
Unknown
Speed
Unknown
Apparent Right ascension
Unknown
Apparent Declination
Unknown
Sunlit
N/A
Visualization observer readout
Local Sidereal Time
06:09:44
Azimuth
Unknown
Elevation
Unknown
Doppler factor
Unknown
Orbital elements
Apogee altitude
1,281.402 km
Perigee altitude
1,233.87 km
Semi-major axis
7,635.773 km
Eccentricity
0.00311
Inclination
90.2488°
RAAN
13.786°
Arg. of periapsis
13.5503°
True anomaly
346.5621°
Mean anomaly
346.6448°
Eccentric anomaly
346.60348°
Mean motion
3.25285 °/min
Orbital period
110.67 mins
BSTAR
-0.0017843
Loading maneuver chart data...
Computing Atmospheric mass density...
Loading historical data...
Loading historical data...
Loading historical data...
Loading historical data...
Loading historical data...
Loading historical data...
Loading historical data...

Documentation

Showing up to 5 results
|